DW6193 Weather Reports


time (UTC)temp
F
wind
direction
speed
knots
gust
knots
rain 1hr
in
rain 24hr
in
rain mn
in
humidity
%
barometer
mb
20260507223527 80 278 0.9 6.1 0.00 0.00 0.00 1019.3
20260507223047 79 316 1.7 6.1 0.00 0.00 0.00 1019.2
20260507222526 80 46 1.7 6.1 0.00 0.00 0.00 1019.2
20260507222027 79 112 0.9 5.2 0.00 0.00 0.00 1019.2
20260507221539 80 268 0.9 3.5 0.00 0.00 0.00 1019.3
20260507221030 81 268 0.9 5.2 0.00 0.00 0.00 1019.3
20260507220527 80 141 0.9 5.2 0.00 0.00 0.00 1019.4
20260507220038 78 288 1.7 5.2 0.00 0.00 0.00 1019.4
20260507215527 76 268 0.9 4.3 0.00 0.00 0.00 1019.5
20260507215027 76 252 0.9 4.3 0.00 0.00 0.00 1019.4
20260507214539 75 280 0.9 4.3 0.00 0.00 0.00 1019.6
20260507214026 76 0 0.9 3.5 0.00 0.00 0.00 1019.6
20260507213529 76 39 0.9 4.3 0.00 0.00 0.00 1019.6
20260507213048 75 0 0.9 4.3 0.00 0.00 0.00 1019.6
20260507212527 72 280 0.9 6.1 0.00 0.00 0.00 1019.8
20260507212027 72 307 0.9 6.1 0.00 0.00 0.00 1019.6
20260507211539 71 22 1.7 6.1 0.00 0.00 0.00 1019.8
20260507211026 73 317 0.9 5.2 0.00 0.00 0.00 1020.0
20260507210527 73 105 0.9 7.8 0.00 0.00 0.00 1019.9
20260507210105 72 288 1.7 7.8 0.00 0.00 0.00 1020.0
20260507205527 70 322 0.9 7.8 0.00 0.00 0.00 1020.0
20260507205027 72 355 0.9 4.3 0.00 0.00 0.00 1020.2
20260507204537 70 26 0.9 4.3 0.00 0.00 0.00 1020.2
20260507204026 69 68 0.9 7.0 0.00 0.00 0.00 1020.1
20260507203527 69 227 0.9 7.0 0.00 0.00 0.00 1020.3
20260507203037 71 77 0.9 5.2 0.00 0.00 0.00 1020.4
20260507202526 71 195 0.9 5.2 0.00 0.00 0.00 1020.3
20260507202026 70 355 0.9 5.2 0.00 0.00 0.00 1020.3
20260507201543 70 227 0.9 4.3 0.00 0.00 0.00 1020.2
20260507201029 70 158 1.7 6.1 0.00 0.00 0.00 1020.3
20260507200527 71 136 0.9 6.1 0.00 0.00 0.00 1020.4
20260507200052 70 99 0.9 4.3 0.00 0.00 0.00 1020.3
20260507195527 70 241 0.9 3.5 0.00 0.00 0.00 1020.4
20260507195028 71 183 0.9 4.3 0.00 0.00 0.00 1020.5
20260507194538 69 136 1.7 5.2 0.00 0.00 0.00 1020.4
20260507194026 69 255 1.7 5.2 0.00 0.00 0.00 1020.5
20260507193533 70 99 0.9 3.5 0.00 0.00 0.00 1020.7
20260507193102 69 341 0.9 4.3 0.00 0.00 0.00 1020.6
20260507192528 70 268 0.9 4.3 0.00 0.00 0.00 1020.7
20260507192028 70 158 0.9 5.2 0.00 0.00 0.00 1020.7
20260507191537 71 12 0.9 5.2 0.00 0.00 0.00 1020.8
20260507191027 72 122 1.7 4.3 0.00 0.00 0.00 1020.8
20260507190527 70 252 0.9 4.3 0.00 0.00 0.00 1020.9
20260507190039 69 263 0.9 5.2 0.00 0.00 0.00 1021.0
20260507185528 68 131 1.7 5.2 0.00 0.00 0.00 1021.1
20260507185028 69 109 0.9 4.3 0.00 0.00 0.00 1021.0
20260507184540 69 302 0.9 5.2 0.00 0.00 0.00 1021.0
20260507184026 70 124 0.9 5.2 0.00 0.00 0.00 1021.2
20260507183530 70 304 0.9 4.3 0.00 0.00 0.00 1021.1
20260507183040 70 255 0.9 4.3 0.00 0.00 0.00 1021.4
20260507182527 69 28 0.9 4.3 0.00 0.00 0.00 1021.4
20260507182026 68 248 0.9 4.3 0.00 0.00 0.00 1021.3
20260507181537 69 241 0.9 4.3 0.00 0.00 0.00 1021.5
20260507181029 69 338 0.9 3.5 0.00 0.00 0.00 1021.5
20260507180526 68 338 0.9 5.2 0.00 0.00 0.00 1021.5
20260507180043 67 64 1.7 5.2 0.00 0.00 0.00 1021.6
20260507175526 67 49 0.9 5.2 0.00 0.00 0.00 1021.7
20260507175028 63 291 1.7 4.3 0.00 0.00 0.00 1021.6
20260507174536 69 0 0.9 4.3 0.00 0.00 0.00 1021.8
20260507174025 68 268 0.9 5.2 0.00 0.00 0.00 1021.7
20260507173526 65 322 1.7 5.2 0.00 0.00 0.00 1021.8
20260507173101 67 99 0.9 3.5 0.00 0.00 0.00 1021.8
20260507172526 67 236 0.9 3.5 0.00 0.00 0.00 1021.9
20260507172025 67 268 0.9 3.5 0.00 0.00 0.00 1021.8
20260507171538 67 268 0.9 3.5 0.00 0.00 0.00 1021.8
20260507171027 68 278 0.9 3.5 0.00 0.00 0.00 1021.8
20260507170527 66 268 0.9 3.5 0.00 0.00 0.00 1021.8
20260507170038 66 311 0.9 2.6 0.00 0.00 0.00 1021.8
20260507165526 66 268 0.0 2.6 0.00 0.00 0.00 1021.9
20260507165029 62 259 0.9 4.3 0.00 0.00 0.00 1021.8
20260507164538 61 90 0.0 4.3 0.00 0.00 0.00 1021.8
20260507164029 58 254 1.7 4.3 0.00 0.00 0.00 1021.9
20260507163526 63 243 0.9 4.3 0.00 0.00 0.00 1021.7
20260507163038 60 0 0.9 3.5 0.00 0.00 0.00 1021.8
20260507162525 58 311 0.9 3.5 0.00 0.00 0.00 1021.8
20260507162027 57 302 0.9 3.5 0.00 0.00 0.00 1021.8
20260507161557 58 311 0.9 3.5 0.00 0.00 0.00 1021.8
20260507161025 58 311 0.9 3.5 0.00 0.00 0.00 1021.8
20260507160525 59 0 0.0 1.7 0.00 0.00 0.00 1021.8
20260507160057 58 268 0.0 2.6 0.00 0.00 0.00 1021.7
20260507155528 58 0 0.9 2.6 0.00 0.00 0.00 1021.6
20260507155025 59 0 0.0 2.6 0.00 0.00 0.00 1021.8
20260507154537 56 227 0.0 2.6 0.00 0.00 0.00 1021.7
20260507154024 55 0 0.0 1.7 0.00 0.00 0.00 1021.9
20260507153524 55 205 0.0 2.6 0.00 0.00 0.00 1021.8
20260507153036 55 0 0.0 3.5 0.00 0.00 0.00 1021.8
20260507152523 54 216 0.9 3.5 0.00 0.00 0.00 1021.7
20260507152026 53 9 0.0 3.5 0.00 0.00 0.00 1021.8
20260507151536 53 331 0.9 3.5 0.00 0.00 0.00 1021.8
20260507151024 53 268 0.0 2.6 0.00 0.00 0.00 1021.7
20260507150524 53 0 0.0 2.6 0.00 0.00 0.00 1021.8
20260507150040 53 116 0.0 2.6 0.00 0.00 0.00 1021.8
20260507145523 52 141 0.9 5.2 0.00 0.00 0.00 1021.8
20260507145029 51 291 1.7 5.2 0.00 0.00 0.00 1021.8
20260507144548 52 49 0.9 4.3 0.00 0.00 0.00 1021.7
20260507144027 52 0 0.0 7.0 0.00 0.00 0.00 1021.8
20260507143524 50 0 1.7 7.0 0.00 0.00 0.00 1021.7
20260507143045 50 286 3.5 7.0 0.00 0.00 0.00 1021.7
20260507142525 50 268 1.7 4.3 0.00 0.00 0.00 1021.7
20260507142024 50 283 1.7 5.2 0.00 0.00 0.00 1021.7
20260507141544 50 281 0.9 7.0 0.00 0.00 0.00 1021.7
20260507141026 49 293 0.9 7.8 0.00 0.00 0.00 1021.7
20260507140528 49 285 2.6 7.8 0.00 0.00 0.00 1021.6
20260507140043 49 293 2.6 7.0 0.00 0.00 0.00 1021.5
20260507135524 49 288 2.6 7.0 0.00 0.00 0.00 1021.4
20260507135025 49 282 4.3 7.0 0.00 0.00 0.00 1021.5
20260507134537 49 292 1.7 6.1 0.00 0.00 0.00 1021.4
20260507134027 49 283 1.7 4.3 0.00 0.00 0.00 1021.6
20260507133525 49 268 2.6 7.0 0.00 0.00 0.00 1021.5
20260507133038 48 355 3.5 7.0 0.00 0.00 0.00 1021.4
20260507132524 48 282 3.5 7.8 0.00 0.00 0.00 1021.5
20260507132024 48 285 2.6 8.7 0.00 0.00 0.00 1021.5
20260507131537 48 274 4.3 8.7 0.00 0.00 0.00 1021.3
20260507131024 48 297 4.3 8.7 0.00 0.00 0.00 1021.5
20260507130526 49 301 3.5 8.7 0.00 0.00 0.00 1021.5
20260507130041 48 283 6.1 8.7 0.00 0.00 0.00 1021.5
20260507125523 49 288 4.3 9.6 0.00 0.00 0.00 1021.5
20260507125026 49 322 3.5 9.6 0.00 0.00 0.00 1021.5
20260507124540 49 268 3.5 8.7 0.00 0.00 0.00 1021.3
20260507124023 49 286 4.3 8.7 0.00 0.00 0.00 1021.4
20260507123524 49 285 5.2 8.7 0.00 0.00 0.00 1021.4
20260507123043 49 295 3.5 8.7 0.00 0.00 0.00 1021.5
20260507122525 49 306 4.3 9.6 0.00 0.00 0.00 1021.5
20260507122026 49 282 5.2 9.6 0.00 0.00 0.00 1021.4
20260507121538 49 290 5.2 8.7 0.00 0.00 0.00 1021.5
20260507121024 50 286 3.5 9.6 0.00 0.00 0.00 1021.4
20260507120523 50 286 5.2 9.6 0.00 0.00 0.00 1021.6
20260507120044 50 279 1.7 8.7 0.00 0.00 0.00 1021.6
20260507115523 50 295 3.5 8.7 0.00 0.00 0.00 1021.5
20260507115023 50 292 3.5 8.7 0.00 0.00 0.00 1021.7
20260507114545 50 99 4.3 8.7 0.00 0.00 0.00 1021.6
20260507114029 50 319 3.5 7.8 0.00 0.00 0.00 1021.6
20260507113527 50 276 2.6 7.8 0.00 0.00 0.00 1021.6
20260507113038 50 268 3.5 7.8 0.00 0.00 0.00 1021.6
20260507112524 50 290 2.6 7.0 0.00 0.00 0.00 1021.7
20260507112024 51 0 0.9 8.7 0.00 0.00 0.00 1021.6
20260507111545 51 39 2.6 8.7 0.00 0.00 0.00 1021.7
20260507111023 50 259 4.3 7.8 0.00 0.00 0.00 1021.7
20260507110523 51 277 3.5 7.8 0.00 0.00 0.00 1021.7
20260507110038 51 169 2.6 7.8 0.00 0.00 0.00 1021.7
20260507105525 51 170 1.7 7.0 0.00 0.00 0.00 1021.8
20260507105023 51 282 2.6 5.2 0.00 0.00 0.00 1021.8
20260507104544 51 286 0.9 6.1 0.00 0.00 0.00 1021.8
20260507104023 51 280 0.9 8.7 0.00 0.00 0.00 1021.8
20260507103526 51 243 2.6 8.7 0.00 0.00 0.00 1021.8
20260507103040 51 305 2.6 9.6 0.00 0.00 0.00 1021.8
20260507102525 51 278 4.3 9.6 0.00 0.00 0.00 1021.9
20260507102026 51 39 4.3 9.6 0.00 0.00 0.00 1021.9
20260507101543 51 39 3.5 9.6 0.00 0.00 0.00 1021.9
20260507101027 51 276 1.7 8.7 0.00 0.00 0.00 1021.9
20260507100525 51 288 1.7 8.7 0.00 0.00 0.00 1021.9
20260507100037 51 192 1.7 8.7 0.00 0.00 0.00 1021.9
20260507095524 51 308 3.5 8.7 0.00 0.00 0.00 1022.0
20260507095029 51 292 3.5 7.8 0.00 0.00 0.00 1022.1
20260507094541 52 0 0.9 7.0 0.00 0.00 0.00 1022.1
20260507094027 52 304 1.7 7.0 0.00 0.00 0.00 1022.1
20260507093523 52 324 0.9 8.7 0.00 0.00 0.00 1022.0
20260507093043 52 274 2.6 8.7 0.00 0.00 0.00 1022.2
20260507092526 52 297 1.7 7.0 0.00 0.00 0.00 1022.2
20260507092023 52 317 2.6 8.7 0.00 0.00 0.00 1022.1
20260507091540 52 355 2.6 10.4 0.00 0.00 0.00 1022.1
20260507091023 52 311 4.3 10.4 0.00 0.00 0.00 1022.1
20260507090525 52 288 2.6 7.8 0.00 0.00 0.00 1022.3
20260507090042 52 268 0.9 9.6 0.00 0.00 0.00 1022.3
20260507085527 52 53 2.6 9.6 0.00 0.00 0.00 1022.3
20260507085024 52 0 2.6 9.6 0.00 0.00 0.00 1022.4
20260507084541 52 259 0.9 10.4 0.00 0.00 0.00 1022.3
20260507084028 52 252 4.3 10.4 0.00 0.00 0.00 1022.3
20260507083526 52 293 2.6 9.6 0.00 0.00 0.00 1022.5
20260507083039 52 262 4.3 9.6 0.00 0.00 0.00 1022.3
20260507082524 52 280 3.5 9.6 0.00 0.00 0.00 1022.4
20260507082023 52 309 4.3 10.4 0.00 0.00 0.00 1022.4
20260507081538 52 276 5.2 10.4 0.00 0.00 0.00 1022.4
20260507081025 52 284 5.2 10.4 0.00 0.00 0.00 1022.4
20260507080526 52 286 3.5 10.4 0.00 0.00 0.00 1022.5
20260507080040 52 281 6.1 10.4 0.00 0.00 0.00 1022.3
20260507075525 52 280 4.3 12.2 0.00 0.00 0.00 1022.5
20260507075025 52 218 5.2 12.2 0.00 0.00 0.00 1022.4
20260507074539 52 290 4.3 9.6 0.00 0.00 0.00 1022.4
20260507074026 52 285 4.3 9.6 0.00 0.00 0.00 1022.2
20260507073525 52 290 6.1 9.6 0.00 0.00 0.00 1022.4
20260507073039 52 280 5.2 9.6 0.00 0.00 0.00 1022.3
20260507072527 52 278 3.5 11.3 0.00 0.00 0.00 1022.3
20260507072027 52 293 5.2 11.3 0.00 0.00 0.00 1022.3
20260507071536 52 286 6.1 11.3 0.00 0.00 0.00 1022.3
20260507071025 52 295 7.0 11.3 0.00 0.00 0.00 1022.3
20260507070526 52 329 4.3 11.3 0.00 0.00 0.00 1022.2
20260507070037 52 306 7.0 11.3 0.00 0.00 0.00 1022.3
20260507065526 53 297 6.1 10.4 0.00 0.00 0.00 1022.3
20260507065027 53 283 6.1 10.4 0.00 0.00 0.00 1022.4
20260507064550 53 286 6.1 13.0 0.00 0.00 0.00 1022.3
20260507064023 53 288 6.1 13.0 0.00 0.00 0.00 1022.3
20260507063527 53 282 6.1 10.4 0.00 0.00 0.00 1022.3
20260507063037 53 329 4.3 10.4 0.00 0.00 0.00 1022.5
20260507062527 53 283 6.1 12.2 0.00 0.00 0.00 1022.4
20260507062026 53 291 6.1 13.0 0.00 0.00 0.00 1022.3
20260507061538 53 300 5.2 13.0 0.00 0.00 0.00 1022.4
20260507061023 53 297 4.3 11.3 0.00 0.00 0.00 1022.3
20260507060525 53 281 7.8 13.0 0.00 0.00 0.00 1022.3
20260507060037 53 280 7.0 13.0 0.00 0.00 0.00 1022.4
20260507055524 53 292 6.1 12.2 0.00 0.00 0.00 1022.4
20260507055024 54 275 6.1 10.4 0.00 0.00 0.00 1022.2
20260507054540 54 275 4.3 10.4 0.00 0.00 0.00 1022.3
20260507054029 54 99 2.6 9.6 0.00 0.00 0.00 1022.4
20260507053529 54 283 4.3 10.4 0.00 0.00 0.00 1022.2
20260507053044 54 286 4.3 13.0 0.00 0.00 0.00 1022.2
20260507052528 54 278 7.8 13.0 0.00 0.00 0.00 1022.1
20260507052028 54 279 6.1 13.0 0.00 0.00 0.00 1022.3
20260507051538 55 285 4.3 10.4 0.00 0.00 0.00 1022.3
20260507051030 55 298 2.6 10.4 0.00 0.00 0.00 1022.2
20260507050527 55 0 4.3 10.4 0.00 0.00 0.00 1022.2
20260507050040 55 39 4.3 10.4 0.00 0.00 0.00 1022.2
20260507045527 55 306 2.6 13.9 0.00 0.00 0.00 1022.3
20260507045027 55 316 3.5 13.9 0.00 0.00 0.00 1022.1
20260507044537 55 259 4.3 13.9 0.00 0.00 0.00 1022.2
20260507044026 55 222 4.3 12.2 0.00 0.00 0.00 1022.1
20260507043528 56 274 3.5 10.4 0.00 0.00 0.00 1022.2
20260507043038 56 293 3.5 11.3 0.00 0.00 0.00 1022.0
20260507042525 56 230 3.5 11.3 0.00 0.00 0.00 1022.1
20260507042028 57 71 1.7 8.7 0.00 0.00 0.00 1021.9
20260507041552 57 273 2.6 8.7 0.00 0.00 0.00 1022.0
20260507041028 57 99 1.7 8.7 0.00 0.00 0.00 1021.8
20260507040531 57 39 3.5 8.7 0.00 0.00 0.00 1021.8
20260507040042 57 138 2.6 8.7 0.00 0.00 0.00 1021.8
20260507035529 57 290 2.6 9.6 0.00 0.00 0.00 1021.6
20260507035028 57 359 2.6 9.6 0.00 0.00 0.00 1021.5
20260507034538 58 264 3.5 10.4 0.00 0.00 0.00 1021.5
20260507034028 58 99 4.3 10.4 0.00 0.00 0.00 1021.3
20260507033531 58 307 1.7 9.6 0.00 0.00 0.00 1021.4
20260507033045 58 300 3.5 10.4 0.00 0.00 0.00 1021.4
20260507032526 58 281 2.6 10.4 0.00 0.00 0.00 1021.4
20260507032028 58 302 1.7 9.6 0.00 0.00 0.00 1021.2
20260507031536 59 275 2.6 9.6 0.00 0.00 0.00 1021.1
20260507031028 59 255 1.7 7.8 0.00 0.00 0.00 1021.1
20260507030529 59 268 1.7 7.8 0.00 0.00 0.00 1020.9
20260507030038 59 307 1.7 7.8 0.00 0.00 0.00 1021.0
20260507025528 60 276 1.7 8.7 0.00 0.00 0.00 1021.0
20260507025026 60 286 2.6 8.7 0.00 0.00 0.00 1020.9
20260507024542 61 141 1.7 7.0 0.00 0.00 0.00 1020.8
20260507024028 61 16 2.6 8.7 0.00 0.00 0.00 1020.9
20260507023528 61 99 2.6 8.7 0.00 0.00 0.00 1021.0
20260507023037 61 252 2.6 9.6 0.00 0.00 0.00 1020.7
20260507022026 62 284 2.6 12.2 0.00 0.00 0.00 1020.9
20260507021537 63 309 2.6 8.7 0.00 0.00 0.00 1020.9
20260507021023 63 99 1.7 8.7 0.00 0.00 0.00 1020.8
20260507020526 64 285 1.7 7.8 0.00 0.00 0.00 1021.0
20260507020037 65 192 0.9 5.2 0.00 0.00 0.00 1021.0
20260507015526 64 316 1.7 5.2 0.00 0.00 0.00 1021.1
20260507015029 66 284 0.9 4.3 0.00 0.00 0.00 1021.1
20260507014554 66 124 0.9 4.3 0.00 0.00 0.00 1021.2
20260507014029 66 99 0.9 3.5 0.00 0.00 0.00 1021.4
20260507013527 66 284 0.0 2.6 0.00 0.00 0.00 1021.1
20260507013045 66 282 0.9 2.6 0.00 0.00 0.00 1021.0
20260507012528 66 0 0.0 3.5 0.00 0.00 0.00 1021.0
20260507012030 66 116 0.9 3.5 0.00 0.00 0.00 1021.1
20260507011540 66 295 0.9 4.3 0.00 0.00 0.00 1021.1
20260507011026 67 295 0.9 4.3 0.00 0.00 0.00 1021.2
20260507010526 67 295 0.0 3.5 0.00 0.00 0.00 1021.2
20260507010036 67 277 0.9 3.5 0.00 0.00 0.00 1021.2
20260507005527 68 268 0.9 3.5 0.00 0.00 0.00 1021.2
20260507005023 68 268 0.9 3.5 0.00 0.00 0.00 1021.1
20260507004535 68 0 0.0 1.7 0.00 0.00 0.00 1021.2
20260507004028 68 356 0.0 2.6 0.00 0.00 0.00 1021.2
20260507003527 68 183 0.0 2.6 0.00 0.00 0.00 1021.3
20260507003038 68 355 0.0 2.6 0.00 0.00 0.00 1021.3
20260507002526 69 280 0.0 2.6 0.00 0.00 0.00 1021.3
20260507002027 68 227 0.9 2.6 0.00 0.00 0.00 1021.3
20260507001544 69 268 0.0 1.7 0.00 0.00 0.00 1021.3
20260507001026 69 64 0.0 2.6 0.00 0.00 0.00 1021.1
20260507000530 69 0 0.0 2.6 0.00 0.00 0.00 1021.2
20260507000036 71 252 0.0 2.6 0.00 0.00 0.00 1021.3
20260506235526 71 0 0.9 2.6 0.00 0.00 0.00 1021.3
20260506235026 72 99 0.0 1.7 0.00 0.00 0.00 1021.1
20260506234536 72 64 0.0 3.5 0.00 0.00 0.00 1021.2
20260506234026 73 166 0.0 3.5 0.00 0.00 0.00 1021.1
20260506233527 73 239 0.9 3.5 0.00 0.00 0.00 1021.2
20260506233043 76 243 0.9 3.5 0.00 0.00 0.00 1021.1
20260506232526 76 99 0.9 5.2 0.00 0.00 0.00 1021.2
20260506232035 73 39 0.9 5.2 0.00 0.00 0.00 1021.2
20260506231540 73 276 0.9 5.2 0.00 0.00 0.00 1021.3
20260506231026 76 99 0.9 3.5 0.00 0.00 0.00 1021.4
20260506230526 74 55 0.9 3.5 0.00 0.00 0.00 1021.4
20260506230037 74 39 0.9 2.6 0.00 0.00 0.00 1021.4
20260506225526 74 0 0.0 2.6 0.00 0.00 0.00 1021.5
20260506225029 72 248 0.0 2.6 0.00 0.00 0.00 1021.5
20260506224540 71 131 0.0 3.5 0.00 0.00 0.00 1021.6
20260506224026 69 243 0.9 3.5 0.00 0.00 0.00 1021.5